Wind_Speed
9 5 10 12 8 8 6 9 14 5 15 13 12 12 17 18 13 5 9 7 6 11 9 8 5 7 8 8 8 7 6 6 6 6 5 5 4 3 2 2 1 1 1 0 1 1 1 1 2
12 11 13 8 13 12 9 11 14 17 12 8 10 9 14 17 17 11 9 9 9 9 10 11 5 7 7 8 7 6 5 5 5 5 4 3 2 2 2 2 1 2 2 2 1 2 2 2 3
12 12 10 13 9 10 6 11 12 14 10 7 7 10 8 5 12 7 14 11 11 9 9 9 6 7 7 7 6 6 5 4 3 3 2 1 0 2 3 4 4 4 4 4 4 4 5 6 7
9 11 7 12 10 6 13 12 17 10 11 7 8 13 10 8 4 12 12 11 11 12 11 8 8 6 6 6 6 5 4 3 2 1 1 2 4 5 5 6 7 7 8 8 8 9 9 9 9
15 9 14 5 10 3 11 9 12 13 12 9 12 18 11 14 12 11 10 10 12 11 13 8 8 6 7 7 5 5 5 4 4 4 4 5 6 6 7 7 8 8 8 9 10 10 12 12 12
11 9 14 5 11 13 10 6 6 16 13 14 19 15 11 10 11 10 10 11 11 10 10 10 8 7 7 7 5 3 3 3 4 4 5 6 7 7 8 8 9 9 10 11 12 13 13 14 14
14 12 17 1 9 8 10 1 7 15 12 9 9 16 11 12 13 10 10 11 11 10 10 10 9 7 7 6 5 5 5 5 5 6 6 7 7 7 7 9 9 9 12 12 13 14 15 15 15
12 13 20 5 10 8 6 7 4 12 13 6 6 8 12 6 11 11 11 11 11 10 10 10 8 6 11 9 8 8 8 8 9 10 10 10 8 11 8 8 9 15 14 13 13 14 15 16 17
12 13 14 14 9 17 12 11 12 8 13 13 10 19 17 14 12 12 12 12 12 12 16 13 13 5 7 8 6 6 10 10 11 11 14 13 9 11 9 9 14 11 11 11 11 13 14 14 16
14 13 19 16 9 7 10 8 14 12 15 16 17 17 15 12 12 13 10 11 11 9 10 9 9 10 9 5 6 4 5 7 7 11 12 11 11 9 11 9 9 10 10 11 8 8 12 10 11
15 18 14 8 3 6 10 9 14 17 12 12 17 16 12 14 11 11 9 10 11 9 10 10 9 9 8 8 7 9 9 10 10 11 14 11 11 11 11 10 8 10 9 13 11 12 10 12 12
15 16 12 6 8 11 9 10 15 10 20 15 14 14 14 12 11 11 10 8 9 10 11 10 11 11 11 8 8 9 9 9 10 11 14 13 11 12 11 10 11 11 11 12 12 12 14 11 10
14 10 9 6 6 12 13 12 8 18 16 14 12 11 12 11 11 11 11 9 8 9 10 13 13 13 12 9 8 8 9 9 9 10 12 13 12 12 12 12 12 12 12 13 14 14 13 15 16
14 7 10 11 13 15 14 17 10 12 16 15 13 12 10 9 9 9 9 9 9 10 9 10 11 11 10 10 10 10 9 10 9 10 12 13 12 12 12 12 12 12 13 13 14 15 15 16 17
4 10 9 11 16 12 19 15 9 14 16 15 13 11 10 10 9 10 9 9 10 11 10 10 11 13 12 11 10 10 9 9 9 9 10 13 13 13 14 13 12 13 14 14 14 14 15 16 16
13 18 13 12 14 12 17 18 15 13 15 14 13 12 11 10 11 10 10 10 10 10 11 11 11 10 10 10 9 8 9 9 9 10 10 13 12 13 13 12 12 14 14 13 13 15 16 16 17
13 14 19 14 16 15 21 14 14 14 15 14 12 12 11 11 11 11 11 12 12 12 12 12 12 12 11 10 8 6 7 9 10 9 10 13 12 13 14 12 13 15 14 13 14 16 16 18 17
16 17 16 16 15 15 19 12 16 14 13 14 14 12 11 11 11 12 12 13 13 13 13 13 13 14 12 11 11 10 10 10 10 10 11 13 13 14 14 12 12 13 13 12 15 16 16 17 15
14 15 5 4 19 17 21 16 16 14 14 15 14 13 11 11 13 12 13 13 13 12 13 12 13 13 13 13 14 14 13 12 10 10 11 12 14 13 13 13 13 13 13 11 14 15 16 13 14
14 9 8 10 4 12 17 17 15 16 18 16 15 13 13 12 12 13 13 12 11 11 10 10 11 12 14 13 13 13 12 11 8 10 10 12 14 14 14 14 14 13 12 11 13 15 16 12 17
16 15 12 11 10 12 9 13 16 17 17 16 15 14 13 14 13 12 14 12 12 10 9 9 10 12 13 15 14 14 12 11 11 13 12 15 12 14 15 14 14 12 15 12 10 12 13 14 16
16 16 10 11 12 10 11 14 16 17 19 19 19 16 15 14 13 13 14 13 12 10 9 8 10 11 12 14 14 14 13 13 13 13 14 14 11 12 14 13 12 10 10 11 10 13 10 13 15
18 12 8 10 14 12 28 11 15 24 20 21 19 18 15 14 13 13 15 14 12 10 8 7 8 10 11 12 13 14 13 13 14 14 13 13 14 13 12 12 12 12 13 11 13 13 15 13 12
7 11 10 12 14 13 17 12 15 19 18 17 18 18 16 15 14 15 16 14 13 10 8 6 7 9 10 11 11 11 11 12 12 14 13 13 11 10 11 12 11 11 13 14 11 11 11 13 16
11 11 9 12 13 13 9 8 7 12 1 1 20 20 18 16 15 14 15 16 13 10 6 5 7 9 9 9 10 11 10 10 11 13 13 13 12 12 10 13 11 11 12 10 10 13 8 12 10
17 14 13 5 13 9 4 7 5 11 7 7 6 21 19 17 16 15 17 15 14 10 7 6 7 8 7 9 11 11 10 10 12 11 10 10 10 10 10 11 10 11 13 12 12 13 13 13 13
15 18 8 10 8 9 9 9 10 11 9 8 4 10 17 17 16 16 17 14 13 10 6 6 7 6 7 9 10 9 8 10 10 10 9 8 9 8 7 7 10 12 14 14 13 14 15 15 14
12 11 8 9 13 13 8 6 3 8 12 10 7 11 15 16 16 15 16 14 12 10 8 7 5 6 7 8 8 7 7 7 6 6 9 10 11 11 10 10 11 11 12 13 13 13 13 14 15
12 11 8 5 6 10 6 5 6 3 4 7 12 12 16 16 16 15 16 16 13 11 10 6 5 6 6 7 6 6 4 3 7 8 9 9 9 10 10 10 11 11 10 11 10 10 11 11 11
13 17 18 10 15 5 10 8 8 4 5 2 3 14 16 16 16 16 18 17 15 12 10 7 5 6 5 6 5 5 3 6 6 7 7 8 9 11 11 10 9 9 9 8 10 11 11 13 13
Wind_Direction
305 286 279 266 249 212 162 89 70 104 91 64 44 62 72 43 23 67 106 120 111 72 94 89 68 92 99 100 99 103 120 134 137 137 138 145 156 167 179 178 180 174 163 213 196 161 171 190 241
283 286 254 271 246 72 306 122 103 74 77 114 55 63 76 66 72 90 103 123 101 91 88 110 82 92 98 106 111 114 120 124 126 132 140 155 173 194 224 254 268 290 300 307 311 316 308 286 254
285 272 275 248 268 111 121 100 92 94 71 60 106 53 29 28 38 87 97 107 94 96 99 88 89 93 91 97 103 105 102 99 104 108 113 132 277 313 312 311 313 313 308 297 291 295 296 294 293
277 242 243 250 51 61 81 92 93 116 101 70 123 84 91 76 75 95 96 104 114 108 93 94 95 96 90 79 77 86 92 96 87 14 300 291 300 302 303 311 314 317 314 309 307 306 300 297 293
248 263 258 205 123 161 87 93 132 88 80 66 99 84 90 91 109 111 114 111 95 82 108 96 103 99 86 83 68 54 49 44 28 5 354 345 335 323 313 308 305 301 295 293 292 291 291 291 292
271 255 261 159 300 112 120 135 86 80 101 103 107 95 89 115 121 113 98 87 97 95 93 101 97 100 101 100 96 86 71 39 22 10 357 349 337 332 324 321 317 310 304 299 295 290 287 285 284
260 275 271 287 82 164 142 100 201 100 98 66 136 100 116 117 97 111 113 109 106 108 114 121 100 114 111 99 82 65 49 31 17 7 359 354 346 348 339 335 305 307 306 300 296 291 286 284 282
260 272 274 229 174 90 70 152 89 117 78 94 18 131 133 131 137 128 111 105 102 94 98 107 81 103 145 91 62 47 34 26 21 8 358 343 332 348 329 335 323 315 306 304 302 299 290 282 276
261 267 256 241 226 151 138 144 53 94 106 65 65 83 122 144 146 131 118 91 67 50 49 40 39 53 52 84 61 44 31 31 20 358 349 343 323 327 321 314 324 327 338 327 325 314 306 299 285
235 240 252 261 195 242 150 177 141 129 116 105 104 108 119 156 99 77 91 89 67 50 50 52 29 20 37 13 19 27 19 20 21 3 351 344 338 336 330 305 328 351 341 313 334 335 332 294 294
222 245 245 273 300 245 145 144 152 149 136 137 125 110 126 88 103 101 93 83 91 82 64 50 39 31 14 15 358 11 3 358 351 3 2 352 345 354 340 333 329 331 321 342 326 316 314 332 317
238 229 273 271 213 250 152 127 195 132 92 113 124 134 126 134 129 117 105 94 88 71 61 50 38 32 26 11 11 356 3 4 1 0 7 3 357 353 350 341 330 335 333 328 326 322 322 299 304
226 224 219 242 171 211 118 141 82 92 103 118 128 127 121 117 116 111 114 106 84 70 53 47 38 37 33 30 23 17 13 13 6 4 4 7 0 350 342 337 330 329 332 331 326 319 318 304 298
196 214 201 185 203 201 140 117 126 133 139 137 138 130 124 117 109 111 84 76 67 62 52 49 41 41 41 39 32 25 20 11 5 0 1 3 360 346 339 329 327 327 327 324 321 318 312 306 301
213 203 198 212 200 191 132 173 120 159 152 146 145 139 132 125 103 82 82 76 75 70 63 56 49 39 38 34 27 21 14 7 1 355 354 358 353 345 336 325 324 325 324 321 318 317 314 308 305
215 215 197 176 179 161 185 183 144 172 163 162 154 149 137 115 103 98 90 82 78 78 71 63 53 42 33 27 21 13 6 4 358 353 350 351 347 345 337 325 325 324 324 320 320 321 317 311 308
214 215 217 151 185 167 208 121 158 181 182 164 167 160 145 126 113 106 99 93 86 79 74 66 53 44 33 20 7 354 357 356 351 347 346 344 343 342 340 330 326 330 324 324 327 322 316 312 308
201 232 201 173 181 182 202 104 156 184 202 177 178 168 156 145 124 117 110 102 94 85 76 65 53 42 34 24 16 0 348 340 340 342 345 345 343 341 339 331 329 330 327 331 335 329 324 313 314
302 201 195 256 160 206 210 144 160 182 204 191 187 173 164 142 138 131 123 114 102 87 76 66 54 40 33 22 11 359 347 341 339 339 347 346 346 344 343 338 335 338 333 338 343 340 333 329 340
257 245 195 85 146 234 222 158 173 185 206 207 190 179 169 148 153 148 138 124 109 99 84 69 55 41 30 20 5 352 339 336 333 341 338 348 346 346 344 343 338 347 334 29 0 360 355 356 4
231 236 143 220 185 225 244 222 192 195 207 203 213 190 177 174 165 161 152 138 128 112 96 76 55 41 28 15 5 357 353 349 351 344 344 346 344 352 353 351 357 349 6 15 2 5 15 350 14
212 228 167 138 198 211 212 245 150 210 207 206 202 194 180 183 170 167 157 151 140 129 108 80 55 39 26 16 8 0 356 354 346 343 357 340 19 7 0 356 354 5 355 9 10 12 6 10 360
252 163 212 183 225 226 200 249 223 184 204 204 199 194 185 180 180 171 171 156 148 140 113 85 58 39 25 15 13 5 5 356 354 353 349 0 12 9 358 357 2 1 3 19 25 15 16 12 18
133 175 194 218 243 231 252 217 144 185 194 190 192 190 188 176 182 174 163 155 155 149 127 92 58 40 22 14 18 20 14 8 5 5 2 357 352 356 3 360 0 7 11 12 20 15 22 21 23
197 187 210 217 220 237 114 226 313 131 212 51 172 185 180 177 185 177 162 172 167 148 123 98 55 41 24 20 27 31 24 24 21 22 20 17 14 11 8 5 17 24 20 23 16 24 41 30 36
211 200 255 262 267 163 190 236 111 83 76 65 332 169 167 179 178 184 173 175 166 146 130 97 62 44 28 38 45 42 34 32 35 19 9 21 20 15 8 23 31 36 31 25 25 34 26 28 20
201 233 296 301 237 270 263 110 145 141 119 123 151 167 164 178 177 183 171 174 154 147 129 98 67 58 49 52 61 48 36 39 28 18 27 36 40 44 38 38 38 32 32 29 28 42 36 31 24
278 211 211 233 259 260 265 332 55 149 150 149 155 173 167 173 183 174 166 172 152 152 132 101 90 73 66 60 53 56 53 41 26 8 31 32 26 26 28 25 23 21 34 31 28 31 32 28 22
207 237 242 314 209 280 288 86 136 123 91 160 170 179 171 177 185 167 169 165 163 164 144 139 117 84 76 68 74 81 55 28 36 33 30 27 24 20 17 16 16 18 21 24 19 12 21 13 5
294 209 222 225 229 303 312 296 93 108 134 177 317 151 166 180 181 165 170 164 171 167 155 137 118 109 97 86 96 83 73 57 52 38 34 26 22 21 17 17 16 14 15 12 14 4 0 1 1
Height
765 766 763 757 768 736 747 749 732 749 751 755 752 757 770 771 778 808 797 798 798 799 802 804 805 805 805 805 806 807 808 808 809 809 810 810 810 810 810 809 809 809 808 807 807 806 805 805 805
767 765 760 746 757 779 786 732 744 748 754 753 758 756 766 787 780 789 793 796 799 801 803 804 806 807 807 807 808 809 810 810 810 811 811 812 812 812 811 811 810 810 809 809 809 808 807 806 804
766 763 756 741 737 776 764 740 742 751 750 752 762 762 768 797 790 791 795 797 799 802 805 807 808 809 809 810 810 811 812 813 813 813 813 814 814 814 814 813 812 811 811 810 809 809 808 807 806
764 751 743 750 768 742 745 739 742 752 750 752 755 780 788 797 796 796 796 799 800 801 806 809 810 811 811 811 812 812 813 814 814 815 815 815 815 814 813 813 813 813 813 812 811 810 808 807 806
762 747 750 747 756 746 734 736 737 752 758 762 759 786 795 796 797 799 798 798 800 803 806 811 811 813 813 813 814 814 815 815 816 816 815 816 815 814 813 812 812 811 810 810 810 808 807 806 805
759 740 754 761 769 744 739 740 741 750 764 766 773 784 796 797 797 798 799 800 803 806 807 812 813 814 814 814 815 815 815 816 816 816 815 815 815 814 813 812 811 810 809 808 807 806 805 804 803
764 750 752 750 761 755 750 739 744 750 765 771 762 786 793 793 797 801 802 802 804 805 807 809 813 814 814 815 816 816 816 816 816 816 815 815 814 814 812 811 809 809 808 806 805 804 803 802 801
752 750 755 746 752 760 739 744 744 749 774 770 765 783 798 802 799 800 800 802 803 805 806 810 812 813 813 816 817 817 817 818 817 817 816 815 813 812 811 811 809 807 806 804 803 801 800 799 797
750 768 765 751 750 748 742 751 753 758 769 776 778 779 794 799 798 799 799 803 807 809 811 812 813 814 814 815 817 817 818 818 818 818 817 815 813 813 812 810 809 806 805 803 801 799 798 796 793
759 767 757 729 727 738 742 746 759 769 778 786 791 795 800 798 798 801 808 808 818 820 819 819 819 818 817 816 818 818 819 820 821 820 819 816 816 813 811 809 807 805 804 800 798 797 795 793 792
753 762 737 732 732 732 744 747 749 762 781 784 790 797 799 803 809 811 815 816 821 822 823 823 823 822 820 818 819 819 820 822 822 821 819 817 816 813 812 809 807 806 802 800 799 796 794 794 792
761 743 738 736 738 741 748 748 761 753 771 786 794 798 802 807 810 813 817 819 821 823 824 824 825 824 824 822 822 823 823 824 822 822 821 819 818 816 815 813 811 808 805 803 801 798 796 794 792
755 743 743 740 742 744 744 761 768 783 790 796 800 799 802 806 810 813 817 820 822 824 826 827 827 826 826 826 826 826 825 825 825 824 823 821 819 818 816 814 811 808 806 803 801 798 795 793 788
742 741 746 744 748 746 754 774 780 791 794 799 802 805 807 810 812 815 818 821 824 826 829 829 829 829 828 828 828 827 827 826 825 825 823 822 820 818 817 814 812 809 807 805 802 799 796 792 787
742 756 748 748 746 752 751 785 781 787 788 796 802 806 810 813 815 820 823 825 826 830 830 830 830 830 830 830 829 829 828 827 827 826 825 823 821 819 817 814 812 810 807 804 802 799 795 791 787
752 747 766 747 747 746 760 777 788 788 788 796 800 805 808 813 818 823 826 828 829 831 832 832 832 833 833 832 832 831 830 829 828 827 826 824 822 820 818 815 813 810 807 804 801 798 795 791 788
754 762 754 757 747 751 761 784 790 790 786 793 799 804 809 816 822 825 828 830 832 834 835 835 835 834 834 833 832 831 830 829 828 827 826 825 823 820 818 815 812 810 806 804 801 799 795 791 787
756 758 741 751 751 750 760 774 791 790 787 791 795 800 806 813 821 827 829 833 835 836 836 837 837 836 835 834 833 831 829 828 828 828 827 826 823 821 818 815 813 810 807 804 802 799 795 790 784
732 738 740 737 735 751 751 776 789 794 792 788 790 797 804 812 822 827 829 833 835 838 838 839 839 839 837 836 834 832 830 829 828 828 827 826 824 821 818 816 813 810 806 804 802 798 794 788 785
740 742 742 743 747 755 747 766 779 791 790 786 787 794 801 813 820 825 829 832 836 838 840 841 841 840 839 837 836 834 831 829 828 826 826 825 824 821 819 816 813 811 807 803 804 801 796 790 786
745 746 747 754 755 750 747 763 776 782 787 784 783 787 796 808 816 821 826 830 834 838 840 842 842 841 840 838 836 834 830 827 826 826 824 825 823 822 820 817 814 812 808 806 805 802 800 793 791
754 731 733 751 763 773 753 774 768 775 785 783 780 783 792 802 811 818 823 828 832 837 840 842 842 841 840 839 837 835 832 830 829 826 825 826 823 823 822 819 816 813 811 808 806 804 802 798 794
740 726 742 749 756 751 771 766 734 753 775 772 771 778 787 797 807 814 821 825 831 836 839 841 842 841 841 840 839 837 836 833 831 830 829 827 825 824 822 820 817 814 812 810 808 807 804 801 799
727 738 743 746 747 766 743 754 757 748 750 761 762 771 783 793 803 810 817 826 831 834 837 840 841 841 841 840 839 839 838 836 835 833 831 829 827 825 823 821 819 816 814 812 810 808 806 804 803
737 750 774 776 767 766 737 756 743 746 751 744 747 761 776 788 800 807 816 824 828 831 836 838 840 840 841 840 839 840 839 838 836 835 833 831 829 827 825 822 820 818 816 814 812 810 807 806 804
741 745 761 786 784 764 746 761 747 740 740 741 742 748 768 784 794 803 812 819 824 831 835 837 838 839 840 840 839 840 840 838 838 837 835 834 831 829 826 824 822 820 818 816 814 812 810 808 806
739 748 728 751 743 756 738 736 736 738 746 750 754 751 768 781 790 799 809 816 822 830 834 836 837 839 840 839 841 842 841 840 840 838 836 834 832 830 828 825 823 821 819 818 815 814 812 810 808
729 720 759 751 781 781 748 753 746 751 749 752 758 761 769 779 787 796 807 815 822 828 833 836 838 838 839 839 841 842 842 841 840 839 837 836 834 831 829 827 825 823 821 820 818 816 815 813 811
740 744 740 743 759 777 768 762 733 739 738 744 748 757 767 777 783 793 805 815 823 827 831 835 836 837 838 839 842 843 842 841 840 839 838 837 836 833 831 829 827 824 822 821 820 817 815 813 812
722 730 732 755 767 754 757 756 725 732 736 743 743 749 757 771 778 790 802 814 819 824 828 833 835 836 839 841 843 843 842 841 841 840 839 838 837 835 833 831 829 826 824 822 820 818 816 814 812